sat.trackr.live / text

‹ back to catalog

RAVAN

NORAD 41849 · 2016-067B

PAYLOAD ACTIVE UNKNOWN

§ Identity

Operator
Country
US
Launch date
2016-11-11
Launch site
AFWTR
Launch vehicle
Mass (kg)
RCS (m²)
0.04

Purposes: tech_demo

External: N2YO · Heavens-Above · Gunter

§ Orbital elements

Epoch: 2026-09-20T04:29:17.684736Z

Period
91.97 min
Inclination
97.9709°
Eccentricity
0.0004795
Mean motion
15.65676600 rev/d
Perigee alt
368.1 km
Apogee alt
374.5 km
Semi-major
6,749.4 km
B*
7.1551e-4
RAAN
164.4319°
Arg perigee
60.6175°
Mean anomaly
299.5561°
Rev number
54,250

§ Raw data

RAVAN1 41849U 16067B   26263.18701024  .00072485  00000+0  71551-3 0  99952 41849  97.9709 164.4319 0004795  60.6175 299.5561 15.65676600542502

JSON: /api/v1/satellites/41849 · /tle

For live sub-satellite position, see the globe view (requires WebGL).

§ Visibility from observer

Set your observer location to see the next 7 days of passes ≥ 10°. The values pass through the URL so the page stays shareable.

No JS? Fill the form by hand. The geolocation button needs JavaScript.